| time (UTC) | temp F | wind direction | speed MPH | gust MPH | rain 1hr in | rain 24hr in | rain mn in | humidity % | barometer mb |
| 20260831221611 | 101 | 90 | 4.0 | 6.0 | 0.00 | 0.00 | 0.00 | 23 | 1016.3 |
| 20260831220635 | 101 | 45 | 2.0 | 3.0 | 0.00 | 0.00 | 0.00 | 24 | 1016.3 |
| 20260831215611 | 101 | 135 | 4.0 | 5.0 | 0.00 | 0.00 | 0.00 | 23 | 1016.2 |
| 20260831214634 | 102 | 90 | 3.0 | 5.0 | 0.00 | 0.00 | 0.00 | 23 | 1016.5 |
| 20260831213611 | 102 | 45 | 2.0 | 3.0 | 0.00 | 0.00 | 0.00 | 22 | 1016.5 |
| 20260831212634 | 103 | 135 | 7.0 | 10.0 | 0.00 | 0.00 | 0.00 | 22 | 1016.5 |
| 20260831211610 | 102 | 0.0 | 1.0 | 0.00 | 0.00 | 0.00 | 23 | 1016.8 | |
| 20260831210635 | 101 | 45 | 5.0 | 7.0 | 0.00 | 0.00 | 0.00 | 23 | 1016.9 |
| 20260831205611 | 101 | 90 | 3.0 | 4.0 | 0.00 | 0.00 | 0.00 | 23 | 1016.9 |
| 20260831204634 | 103 | 135 | 1.0 | 3.0 | 0.00 | 0.00 | 0.00 | 21 | 1017.2 |
| 20260831203611 | 102 | 90 | 3.0 | 3.0 | 0.00 | 0.00 | 0.00 | 21 | 1017.4 |
| 20260831202634 | 103 | 135 | 1.0 | 3.0 | 0.00 | 0.00 | 0.00 | 20 | 1017.3 |
| 20260831201610 | 102 | 90 | 3.0 | 4.0 | 0.00 | 0.00 | 0.00 | 21 | 1017.5 |
| 20260831200635 | 102 | 90 | 4.0 | 5.0 | 0.00 | 0.00 | 0.00 | 23 | 1017.5 |
| 20260831195611 | 101 | 45 | 3.0 | 5.0 | 0.00 | 0.00 | 0.00 | 26 | 1017.7 |
| 20260831194634 | 98 | 225 | 5.0 | 8.0 | 0.00 | 0.00 | 0.00 | 30 | 1018.1 |
| 20260831193611 | 98 | 180 | 3.0 | 5.0 | 0.00 | 0.00 | 0.00 | 31 | 1018.0 |
| 20260831192634 | 101 | 180 | 5.0 | 7.0 | 0.00 | 0.00 | 0.00 | 25 | 1018.1 |
| 20260831191611 | 102 | 180 | 1.0 | 2.0 | 0.00 | 0.00 | 0.00 | 27 | 1018.1 |
| 20260831190634 | 102 | 135 | 5.0 | 7.0 | 0.00 | 0.00 | 0.00 | 26 | 1018.3 |
| 20260831185610 | 102 | 180 | 3.0 | 5.0 | 0.00 | 0.00 | 0.00 | 28 | 1018.2 |
| 20260831184634 | 101 | 90 | 3.0 | 6.0 | 0.00 | 0.00 | 0.00 | 27 | 1018.3 |
| 20260831183611 | 101 | 135 | 5.0 | 6.0 | 0.00 | 0.00 | 0.00 | 27 | 1018.5 |
| 20260831182634 | 101 | 225 | 3.0 | 3.0 | 0.00 | 0.00 | 0.00 | 27 | 1018.5 |
| 20260831181610 | 100 | 135 | 1.0 | 2.0 | 0.00 | 0.00 | 0.00 | 30 | 1018.9 |
| 20260831180634 | 100 | 225 | 1.0 | 3.0 | 0.00 | 0.00 | 0.00 | 32 | 1018.9 |
| 20260831175611 | 99 | 135 | 3.0 | 3.0 | 0.00 | 0.00 | 0.00 | 33 | 1019.2 |
| 20260831174503 | 99 | 180 | 2.0 | 3.0 | 0.00 | 0.00 | 0.00 | 34 | 1019.2 |
| 20260831173124 | 99 | 45 | 1.0 | 1.0 | 0.00 | 0.00 | 0.00 | 33 | 1019.5 |
| 20260831172208 | 99 | 90 | 1.0 | 2.0 | 0.00 | 0.00 | 0.00 | 34 | 1019.5 |
| 20260831171124 | 98 | 135 | 1.0 | 2.0 | 0.00 | 0.00 | 0.00 | 36 | 1019.7 |
| 20260831170148 | 98 | 225 | 3.0 | 4.0 | 0.00 | 0.00 | 0.00 | 35 | 1019.9 |
| 20260831165124 | 98 | 135 | 2.0 | 3.0 | 0.00 | 0.00 | 0.00 | 35 | 1019.6 |
| 20260831164148 | 97 | 90 | 3.0 | 3.0 | 0.00 | 0.00 | 0.00 | 34 | 1019.6 |
| 20260831163145 | 97 | 90 | 2.0 | 3.0 | 0.00 | 0.00 | 0.00 | 34 | 1019.8 |
| 20260831162148 | 96 | 270 | 1.0 | 2.0 | 0.00 | 0.00 | 0.00 | 36 | 1019.8 |
| 20260831161125 | 95 | 225 | 2.0 | 3.0 | 0.00 | 0.00 | 0.00 | 35 | 1019.7 |
| 20260831160209 | 96 | 135 | 2.0 | 4.0 | 0.00 | 0.00 | 0.00 | 35 | 1019.8 |
| 20260831155124 | 95 | 180 | 4.0 | 6.0 | 0.00 | 0.00 | 0.00 | 36 | 1019.7 |
| 20260831154148 | 94 | 90 | 1.0 | 2.0 | 0.00 | 0.00 | 0.00 | 35 | 1019.9 |
| 20260831153125 | 93 | 135 | 2.0 | 3.0 | 0.00 | 0.00 | 0.00 | 38 | 1019.9 |
| 20260831152149 | 92 | 135 | 3.0 | 4.0 | 0.00 | 0.00 | 0.00 | 40 | 1019.6 |
| 20260831151124 | 91 | 225 | 2.0 | 3.0 | 0.00 | 0.00 | 0.00 | 41 | 1019.8 |
| 20260831150148 | 90 | 225 | 1.0 | 1.0 | 0.00 | 0.00 | 0.00 | 49 | 1019.6 |
| 20260831145124 | 89 | 180 | 3.0 | 4.0 | 0.00 | 0.00 | 0.00 | 50 | 1019.7 |
| 20260831144148 | 88 | 0.0 | 1.0 | 0.00 | 0.00 | 0.00 | 52 | 1019.6 | |
| 20260831143125 | 88 | 0.0 | 1.0 | 0.00 | 0.00 | 0.00 | 53 | 1019.8 | |
| 20260831142209 | 87 | 90 | 1.0 | 2.0 | 0.00 | 0.00 | 0.00 | 57 | 1019.7 |
| 20260831141124 | 86 | 270 | 1.0 | 3.0 | 0.00 | 0.00 | 0.00 | 59 | 1019.7 |
| 20260831140148 | 85 | 0.0 | 1.0 | 0.00 | 0.00 | 0.00 | 62 | 1019.8 | |
| 20260831135125 | 83 | 45 | 1.0 | 2.0 | 0.00 | 0.00 | 0.00 | 62 | 1019.5 |
| 20260831134149 | 82 | 90 | 1.0 | 1.0 | 0.00 | 0.00 | 0.00 | 66 | 1019.6 |
| 20260831133125 | 81 | 0.0 | 1.0 | 0.00 | 0.00 | 0.00 | 71 | 1019.3 | |
| 20260831132148 | 79 | 0.0 | 0.0 | 0.00 | 0.00 | 0.00 | 73 | 1019.1 | |
| 20260831131124 | 77 | 0.0 | 0.0 | 0.00 | 0.00 | 0.00 | 75 | 1019.0 | |
| 20260831130148 | 76 | 0.0 | 0.0 | 0.00 | 0.00 | 0.00 | 78 | 1018.7 | |
| 20260831125124 | 74 | 0.0 | 0.0 | 0.00 | 0.00 | 0.00 | 78 | 1018.6 | |
| 20260831124148 | 73 | 0.0 | 0.0 | 0.00 | 0.00 | 0.00 | 78 | 1018.6 | |
| 20260831123125 | 73 | 0.0 | 0.0 | 0.00 | 0.00 | 0.00 | 77 | 1018.5 | |
| 20260831122149 | 73 | 0.0 | 0.0 | 0.00 | 0.00 | 0.00 | 77 | 1018.1 | |
| 20260831121124 | 73 | 0.0 | 0.0 | 0.00 | 0.00 | 0.00 | 76 | 1018.2 | |
| 20260831120208 | 73 | 0.0 | 0.0 | 0.00 | 0.00 | 0.00 | 75 | 1017.8 | |
| 20260831115124 | 73 | 0.0 | 0.0 | 0.00 | 0.00 | 0.00 | 75 | 1017.9 | |
| 20260831114209 | 73 | 0.0 | 0.0 | 0.00 | 0.00 | 0.00 | 74 | 1017.7 | |
| 20260831113124 | 73 | 0.0 | 0.0 | 0.00 | 0.00 | 0.00 | 74 | 1017.7 | |
| 20260831112148 | 73 | 0.0 | 0.0 | 0.00 | 0.00 | 0.00 | 73 | 1017.7 | |
| 20260831111124 | 73 | 0.0 | 0.0 | 0.00 | 0.00 | 0.00 | 72 | 1017.4 | |
| 20260831110209 | 74 | 0.0 | 0.0 | 0.00 | 0.00 | 0.00 | 72 | 1017.3 | |
| 20260831105125 | 74 | 0.0 | 0.0 | 0.00 | 0.00 | 0.00 | 71 | 1017.3 | |
| 20260831104148 | 74 | 0.0 | 0.0 | 0.00 | 0.00 | 0.00 | 71 | 1017.3 | |
| 20260831103144 | 74 | 0.0 | 0.0 | 0.00 | 0.00 | 0.00 | 71 | 1017.4 | |
| 20260831102149 | 74 | 0.0 | 0.0 | 0.00 | 0.00 | 0.00 | 70 | 1017.4 | |
| 20260831101124 | 74 | 0.0 | 0.0 | 0.00 | 0.00 | 0.00 | 70 | 1017.4 | |
| 20260831100148 | 74 | 0.0 | 0.0 | 0.00 | 0.00 | 0.00 | 70 | 1017.5 | |
| 20260831095124 | 75 | 0.0 | 1.0 | 0.00 | 0.00 | 0.00 | 70 | 1017.4 | |
| 20260831094148 | 75 | 0.0 | 0.0 | 0.00 | 0.00 | 0.00 | 70 | 1017.3 | |
| 20260831093124 | 76 | 90 | 1.0 | 1.0 | 0.00 | 0.00 | 0.00 | 70 | 1017.2 |
| 20260831092148 | 76 | 90 | 1.0 | 1.0 | 0.00 | 0.00 | 0.00 | 66 | 1017.2 |
| 20260831091145 | 77 | 0.0 | 0.0 | 0.00 | 0.00 | 0.00 | 66 | 1016.9 | |
| 20260831090149 | 76 | 0.0 | 0.0 | 0.00 | 0.00 | 0.00 | 67 | 1016.8 | |
| 20260831085124 | 76 | 0.0 | 0.0 | 0.00 | 0.00 | 0.00 | 67 | 1016.9 | |
| 20260831084148 | 76 | 0.0 | 1.0 | 0.00 | 0.00 | 0.00 | 69 | 1016.7 | |
| 20260831083124 | 75 | 0.0 | 0.0 | 0.00 | 0.00 | 0.00 | 70 | 1016.8 | |
| 20260831082148 | 74 | 0.0 | 0.0 | 0.00 | 0.00 | 0.00 | 71 | 1016.8 | |
| 20260831081124 | 74 | 0.0 | 0.0 | 0.00 | 0.00 | 0.00 | 72 | 1017.0 | |
| 20260831080148 | 75 | 0.0 | 1.0 | 0.00 | 0.00 | 0.00 | 72 | 1016.6 | |
| 20260831075124 | 75 | 90 | 1.0 | 2.0 | 0.00 | 0.00 | 0.00 | 71 | 1016.5 |
| 20260831074148 | 74 | 0.0 | 0.0 | 0.00 | 0.00 | 0.00 | 71 | 1016.7 | |
| 20260831073144 | 75 | 0.0 | 0.0 | 0.00 | 0.00 | 0.00 | 70 | 1016.6 | |
| 20260831072209 | 75 | 0.0 | 0.0 | 0.00 | 0.00 | 0.00 | 70 | 1016.5 | |
| 20260831071125 | 75 | 0.0 | 0.0 | 0.00 | 0.00 | 0.00 | 70 | 1016.7 | |
| 20260831070149 | 75 | 0.0 | 0.0 | 0.00 | 0.00 | 0.00 | 70 | 1016.6 | |
| 20260831065124 | 76 | 0.0 | 0.0 | 0.00 | 0.00 | 0.00 | 68 | 1016.6 | |
| 20260831064149 | 76 | 0.0 | 0.0 | 0.00 | 0.00 | 0.00 | 68 | 1016.7 | |
| 20260831063144 | 76 | 0.0 | 0.0 | 0.00 | 0.00 | 0.00 | 68 | 1016.8 | |
| 20260831062209 | 76 | 0.0 | 0.0 | 0.00 | 0.00 | 0.00 | 67 | 1016.8 | |
| 20260831061124 | 77 | 0.0 | 0.0 | 0.00 | 0.00 | 0.00 | 64 | 1016.7 | |
| 20260831060148 | 77 | 0.0 | 0.0 | 0.00 | 0.00 | 0.00 | 64 | 1016.6 | |
| 20260831055145 | 78 | 0.0 | 0.0 | 0.00 | 0.00 | 0.00 | 64 | 1016.9 | |
| 20260831054209 | 78 | 0.0 | 0.0 | 0.00 | 0.00 | 0.00 | 64 | 1016.7 | |
| 20260831053124 | 78 | 0.0 | 0.0 | 0.00 | 0.00 | 0.00 | 63 | 1016.7 | |
| 20260831052209 | 78 | 0.0 | 0.0 | 0.00 | 0.00 | 0.00 | 63 | 1016.6 | |
| 20260831051125 | 78 | 0.0 | 0.0 | 0.00 | 0.00 | 0.00 | 62 | 1016.6 | |
| 20260831050209 | 78 | 0.0 | 0.0 | 0.00 | 0.00 | 0.00 | 61 | 1016.5 | |
| 20260831045124 | 78 | 0.0 | 0.0 | 0.00 | 0.00 | 0.00 | 61 | 1016.6 | |
| 20260831044148 | 79 | 0.0 | 0.0 | 0.00 | 0.00 | 0.00 | 60 | 1016.5 | |
| 20260831043145 | 79 | 0.0 | 0.0 | 0.00 | 0.00 | 0.00 | 60 | 1016.6 | |
| 20260831042148 | 80 | 0.0 | 0.0 | 0.00 | 0.00 | 0.00 | 58 | 1016.4 | |
| 20260831041124 | 80 | 0.0 | 0.0 | 0.00 | 0.00 | 0.00 | 58 | 1016.4 | |
| 20260831040148 | 80 | 0.0 | 0.0 | 0.00 | 0.00 | 0.00 | 57 | 1016.5 | |
| 20260831035125 | 80 | 0.0 | 0.0 | 0.00 | 0.00 | 0.00 | 58 | 1016.5 | |
| 20260831034148 | 79 | 0.0 | 0.0 | 0.00 | 0.00 | 0.00 | 58 | 1016.4 | |
| 20260831033125 | 80 | 0.0 | 0.0 | 0.00 | 0.00 | 0.00 | 58 | 1016.4 | |
| 20260831032148 | 80 | 0.0 | 0.0 | 0.00 | 0.00 | 0.00 | 56 | 1016.2 | |
| 20260831031124 | 81 | 0.0 | 0.0 | 0.00 | 0.00 | 0.00 | 54 | 1016.1 | |
| 20260831030148 | 81 | 0.0 | 0.0 | 0.00 | 0.00 | 0.00 | 53 | 1016.3 | |
| 20260831025124 | 81 | 0.0 | 0.0 | 0.00 | 0.00 | 0.00 | 53 | 1016.1 | |
| 20260831024148 | 82 | 0.0 | 0.0 | 0.00 | 0.00 | 0.00 | 50 | 1016.1 | |
| 20260831023124 | 82 | 0.0 | 0.0 | 0.00 | 0.00 | 0.00 | 49 | 1016.0 | |
| 20260831022149 | 82 | 0.0 | 0.0 | 0.00 | 0.00 | 0.00 | 48 | 1015.9 | |
| 20260831021124 | 83 | 0.0 | 0.0 | 0.00 | 0.00 | 0.00 | 47 | 1015.6 | |
| 20260831020149 | 84 | 0.0 | 0.0 | 0.00 | 0.00 | 0.00 | 45 | 1015.6 | |
| 20260831015125 | 84 | 0.0 | 0.0 | 0.00 | 0.00 | 0.00 | 44 | 1015.4 | |
| 20260831014149 | 85 | 0.0 | 0.0 | 0.00 | 0.00 | 0.00 | 43 | 1015.2 | |
| 20260831013124 | 86 | 0.0 | 0.0 | 0.00 | 0.00 | 0.00 | 42 | 1015.2 | |
| 20260831012209 | 87 | 0.0 | 0.0 | 0.00 | 0.00 | 0.00 | 41 | 1015.0 | |
| 20260831011144 | 88 | 0.0 | 0.0 | 0.00 | 0.00 | 0.00 | 40 | 1015.0 | |
| 20260831010330 | 89 | 0.0 | 0.0 | 0.00 | 0.00 | 0.00 | 40 | 1015.0 | |
| 20260831005124 | 91 | 0.0 | 0.0 | 0.00 | 0.00 | 0.00 | 34 | 1014.8 | |
| 20260831004148 | 92 | 0.0 | 0.0 | 0.00 | 0.00 | 0.00 | 32 | 1015.0 | |
| 20260831003124 | 94 | 0.0 | 0.0 | 0.00 | 0.00 | 0.00 | 31 | 1015.1 | |
| 20260831002148 | 96 | 135 | 1.0 | 1.0 | 0.00 | 0.00 | 0.00 | 31 | 1015.1 |
| 20260831001125 | 97 | 135 | 1.0 | 1.0 | 0.00 | 0.00 | 0.00 | 30 | 1015.1 |
| 20260831000149 | 98 | 135 | 2.0 | 3.0 | 0.00 | 0.00 | 0.00 | 30 | 1015.1 |
| 20260830235124 | 99 | 225 | 2.0 | 3.0 | 0.00 | 0.00 | 0.00 | 29 | 1015.1 |
| 20260830234148 | 100 | 90 | 2.0 | 3.0 | 0.00 | 0.00 | 0.00 | 24 | 1015.3 |
| 20260830233145 | 100 | 180 | 1.0 | 1.0 | 0.00 | 0.00 | 0.00 | 24 | 1015.3 |
| 20260830232148 | 100 | 135 | 1.0 | 2.0 | 0.00 | 0.00 | 0.00 | 23 | 1015.1 |
| 20260830231124 | 101 | 90 | 1.0 | 2.0 | 0.00 | 0.00 | 0.00 | 23 | 1015.2 |
| 20260830230148 | 101 | 225 | 3.0 | 4.0 | 0.00 | 0.00 | 0.00 | 23 | 1015.3 |
| 20260830225125 | 101 | 180 | 3.0 | 5.0 | 0.00 | 0.00 | 0.00 | 22 | 1015.3 |
| 20260830224148 | 102 | 180 | 5.0 | 7.0 | 0.00 | 0.00 | 0.00 | 22 | 1015.4 |
| 20260830223125 | 102 | 180 | 2.0 | 3.0 | 0.00 | 0.00 | 0.00 | 22 | 1015.5 |
| 20260830222148 | 102 | 135 | 2.0 | 3.0 | 0.00 | 0.00 | 0.00 | 22 | 1015.5 |